Regional Weather Roundup
Issued by NWS New Orleans/Baton Rouge, LA

Home | Current Version | Previous Version | Text Only | Print | Product List | Glossary On
Versions: 1 2 3 4 5 6 7 8 9 10 11 12 13 14 15 16 17 18 19 20 21 22 23 24 25 26 27
000
ASUS44 KLIX 250113
RWRLIX
NEW ORLEANS REGIONAL WEATHER ROUNDUP
NATIONAL WEATHER SERVICE NEW ORLEANS LA
800 PM CDT FRI MAR 24 2017

NOTE: "FAIR" INDICATES FEW OR NO CLOUDS BELOW 12,000 FEET WITH NO
      SIGNIFICANT WEATHER AND/OR OBSTRUCTIONS TO VISIBILITY.
      SKY/WX - SKY CONDITION AND SIGNIFICANT WEATHER.
      TMP - AIR TEMPERATURE.     DP    - DEWPOINT TEMPERATURE.
      RH  - RELATIVE HUMIDITY.   PRES  - PRESSURE.
      HI  - HEAT INDEX.          WCI   - WIND CHILL INDEX.

*  THESE STATIONS ARE NOT NWS OR FAA STATIONS AND ARE NOT UNDER
   NWS QUALITY CONTROL.

LAZ038-040-048-061>063-065>067-069-250200-
SOUTHEAST LOUISIANA

CITY           SKY/WX    TMP DP  RH WIND       PRES   REMARKS
N.O. INTL ARPT CLOUDY    72  66  81 SE18      30.12S
N.O. LAKEFRONT CLOUDY    73  67  81 SE21G28   30.13F
N.O. DOWNTOWN*   N/A     73  67  81 VRB6      30.14F
RESERVE*       MOCLDY    74  68  80 SE16G25   30.10F
SLIDELL        CLOUDY    72  66  81 SE13G22   30.13F
BATON ROUGE    MOCLDY    75  63  66 SE13G29   30.06R
BOOTHVILLE     CLOUDY    70  66  87 SE7       30.17S
BELLE CHASSE   CLOUDY    73  67  81 SE17      30.14S
BOGALUSA*      NOT AVBL
GALLIANO*      CLOUDY    73  66  79 SE10G21   30.13S
NEW ROADS*     CLOUDY    74  64  69 S13G20    30.06R
GONZALES*      CLOUDY    74  66  74 SE12      30.06F
HAMMOND*       CLOUDY    72  64  78 SE18G25   30.10F
HOUMA*         CLOUDY    73  68  85 SE15G24   30.11S
PORT FOURCHON* PTCLDY    73  68  83 SE18G28   30.13S

$$

MSZ070-080>082-250200-
SOUTHERN MISSISSIPPI

CITY           SKY/WX    TMP DP  RH WIND       PRES   REMARKS
MCCOMB         MOCLDY    71  63  75 SE15G23   30.09S
GULFPORT       CLOUDY    70  66  87 SE17      30.17S
BILOXI         CLOUDY    70  65  85 SE13      30.18F
PASCAGOULA     CLOUDY    69  63  81 SE12      30.20F
STENNIS ARPT*  PTCLDY    70  63  78 SE13      30.17S

$$

COASTAL OBSERVATIONS
LAKE AND NEARSHORE STATIONS

STATION/POSITION TIME  TEMP    WIND        PRES    WAVE
                       AIR SEA DIR/SP/G            HT/PER
                 (UTC) (F)     (DEG/KT/KT) (MB)    (FT/S)
PASCAGOULA       0042   70     120/ 11/ 16 1022.5
WAVELAND YACHT   0042   71 72  140/ 17/ 21 1021.2
GRAND ISLE       0042   72 74  140/ 13/ 18 1020.4
SOUTHWEST PASS   0042          130/ 18/ 24   N/A
NEW CANAL        0042   72 73  140/  4/ 12 1020.2
SHELL BEACH      0042   71 75  130/ 19/ 23 1021.0

OFFSHORE STATIONS

STATION/POSITION TIME  TEMP    WIND        PRES    WAVE
                       AIR SEA DIR/SP/G            HT/PER
                 (UTC) (F)     (DEG/KT/KT) (MB)    (FT/S)
64 S DAUPHIN ISL 0040   71 73  120/ 16/ 21 1022.5

$$





USA.gov is the U.S. government's official web portal to all federal, state and local government web resources and services.